SWR457 EGLC-LSZH

Flight info

Callsign SWR457
Flight time 1h 16m
Altitude 29000
Route SOQQA M87 UMTUM L9 KONAN UL607 REMBA DCT LIRSU DCT KRH M150 LAMGO/N0432F270 T721 RILAX
Aircraft E190/M-SDE3GILORVW/S

Departure

Time 2026-04-30 13:38
Airport London City Airport (EGLC)

Arrival

Time 2026-04-30 14:54
Airport Zürich Airport (LSZH)
Time Latitude Longitude Altitude Speed Heading
2026-04-30 13:17 51.50413 0.05068 23 ft 0 kts 324°
2026-04-30 13:34 51.50416 0.05068 23 ft 1 kts 342°
2026-04-30 13:34 51.50465 0.04941 23 ft 10 kts 274°
2026-04-30 13:35 51.50468 0.04820 23 ft 12 kts 274°
2026-04-30 13:35 51.50476 0.04555 25 ft 12 kts 273°
2026-04-30 13:36 51.50531 0.04437 23 ft 6 kts 358°
2026-04-30 13:36 51.50559 0.04469 23 ft 5 kts 76°
2026-04-30 13:36 51.50557 0.04497 23 ft 0 kts 94°
2026-04-30 13:37 51.50502 0.06194 233 ft 127 kts 93°
2026-04-30 13:38 51.50422 0.09449 1772 ft 154 kts 90°
2026-04-30 13:38 51.50740 0.11110 2733 ft 163 kts 66°
2026-04-30 13:38 51.52630 0.13608 3047 ft 187 kts 37°
2026-04-30 13:39 51.55034 0.15805 3022 ft 208 kts 40°
2026-04-30 13:39 51.56662 0.19461 3115 ft 204 kts 85°
2026-04-30 13:40 51.56565 0.21732 3163 ft 199 kts 108°
2026-04-30 13:40 51.56182 0.23808 3085 ft 192 kts 105°
2026-04-30 13:40 51.56138 0.25982 2858 ft 197 kts 81°
2026-04-30 13:40 51.56670 0.27989 3122 ft 202 kts 65°
2026-04-30 13:41 51.57406 0.30067 3148 ft 221 kts 65°
2026-04-30 13:41 51.58179 0.32211 3135 ft 221 kts 65°
2026-04-30 13:41 51.58939 0.34268 3154 ft 208 kts 65°
2026-04-30 13:41 51.59683 0.36239 3103 ft 206 kts 65°
2026-04-30 13:42 51.60394 0.38252 3037 ft 207 kts 73°
2026-04-30 13:42 51.60650 0.40425 3272 ft 197 kts 98°
2026-04-30 13:42 51.60201 0.45172 4411 ft 237 kts 102°
2026-04-30 13:43 51.59922 0.47870 5133 ft 249 kts 103°
2026-04-30 13:43 51.59628 0.50640 6024 ft 252 kts 103°
2026-04-30 13:43 51.59315 0.53422 6970 ft 254 kts 104°
2026-04-30 13:43 51.58669 0.56035 7825 ft 253 kts 127°
2026-04-30 13:44 51.57355 0.57889 8672 ft 256 kts 149°
2026-04-30 13:44 51.55656 0.58845 9484 ft 263 kts 164°
2026-04-30 13:44 51.53843 0.59472 10240 ft 269 kts 165°
2026-04-30 13:44 51.51951 0.60071 10646 ft 288 kts 167°
2026-04-30 13:45 51.47726 0.61101 11328 ft 323 kts 169°
2026-04-30 13:45 51.45474 0.61597 11975 ft 328 kts 169°
2026-04-30 13:45 51.43205 0.62089 12727 ft 331 kts 170°
2026-04-30 13:46 51.40969 0.62931 13414 ft 332 kts 154°
2026-04-30 13:46 51.39142 0.65157 14123 ft 334 kts 131°
2026-04-30 13:46 51.37659 0.68048 14755 ft 338 kts 130°
2026-04-30 13:46 51.36145 0.70955 15409 ft 341 kts 130°
2026-04-30 13:47 51.34630 0.73866 16034 ft 345 kts 130°
2026-04-30 13:47 51.33096 0.76839 16614 ft 348 kts 130°
2026-04-30 13:47 51.31569 0.79855 17205 ft 352 kts 130°
2026-04-30 13:47 51.30028 0.82947 17795 ft 355 kts 129°
2026-04-30 13:48 51.28486 0.86057 18319 ft 360 kts 129°
2026-04-30 13:48 51.26923 0.89212 18913 ft 362 kts 129°
2026-04-30 13:48 51.25355 0.92363 19477 ft 364 kts 129°
2026-04-30 13:48 51.23780 0.95537 20067 ft 367 kts 129°
2026-04-30 13:49 51.22203 0.98726 20707 ft 368 kts 129°
2026-04-30 13:49 51.20837 1.02211 21217 ft 373 kts 112°
2026-04-30 13:49 51.20190 1.06217 21811 ft 375 kts 104°
2026-04-30 13:49 51.19626 1.10317 22269 ft 379 kts 104°
2026-04-30 13:50 51.19055 1.14419 22759 ft 381 kts 104°
2026-04-30 13:50 51.17955 1.22721 23725 ft 384 kts 103°
2026-04-30 13:50 51.17423 1.26895 24128 ft 386 kts 103°
2026-04-30 13:51 51.16882 1.31118 24508 ft 389 kts 103°
2026-04-30 13:51 51.16357 1.35289 24885 ft 391 kts 101°
2026-04-30 13:51 51.16065 1.39689 25277 ft 394 kts 97°
2026-04-30 13:51 51.15837 1.43995 25677 ft 397 kts 96°
2026-04-30 13:52 51.15636 1.48445 26040 ft 400 kts 96°
2026-04-30 13:52 51.15444 1.52895 26408 ft 402 kts 96°
2026-04-30 13:52 51.15243 1.57281 26744 ft 404 kts 96°
2026-04-30 13:52 51.15024 1.61741 27052 ft 406 kts 97°
2026-04-30 13:53 51.14792 1.66303 27365 ft 408 kts 97°
2026-04-30 13:53 51.14568 1.70751 27651 ft 410 kts 97°
2026-04-30 13:53 51.14341 1.75274 27929 ft 412 kts 97°
2026-04-30 13:53 51.14113 1.79816 28205 ft 413 kts 97°
2026-04-30 13:54 51.13881 1.84404 28461 ft 415 kts 97°
2026-04-30 13:54 51.13649 1.88954 28696 ft 417 kts 97°
2026-04-30 13:54 51.13410 1.93574 28955 ft 418 kts 96°
2026-04-30 13:54 51.13173 1.98169 29266 ft 415 kts 96°
2026-04-30 13:55 51.12676 2.07530 29217 ft 431 kts 97°
2026-04-30 13:55 51.12166 2.17060 29221 ft 433 kts 97°
2026-04-30 13:56 51.11646 2.26619 29236 ft 433 kts 97°
2026-04-30 13:56 51.11119 2.36174 29233 ft 433 kts 97°
2026-04-30 13:57 51.10584 2.45711 29236 ft 434 kts 96°
2026-04-30 13:57 51.10039 2.55280 29235 ft 434 kts 97°
2026-04-30 13:58 51.08642 2.69439 29247 ft 433 kts 106°
2026-04-30 13:59 51.07038 2.78658 29236 ft 432 kts 107°
2026-04-30 13:59 51.05373 2.87850 29266 ft 433 kts 107°
2026-04-30 14:00 51.03692 2.97021 29257 ft 433 kts 107°
2026-04-30 14:00 51.01170 3.10829 29244 ft 433 kts 107°
2026-04-30 14:01 50.99492 3.19932 29240 ft 433 kts 107°
2026-04-30 14:01 50.97791 3.29116 29241 ft 433 kts 107°
2026-04-30 14:02 50.96082 3.38297 29241 ft 433 kts 107°
2026-04-30 14:02 50.94373 3.47441 29242 ft 434 kts 107°
2026-04-30 14:03 50.92652 3.56609 29239 ft 433 kts 107°
2026-04-30 14:03 50.90922 3.65768 29249 ft 434 kts 107°
2026-04-30 14:04 50.89457 3.73359 29248 ft 433 kts 107°
2026-04-30 14:04 50.87678 3.82495 29261 ft 434 kts 107°
2026-04-30 14:05 50.85914 3.91577 29250 ft 432 kts 107°
2026-04-30 14:05 50.84135 4.00686 29269 ft 433 kts 107°
2026-04-30 14:06 50.81455 4.14311 29281 ft 433 kts 107°
2026-04-30 14:07 50.78760 4.27923 29282 ft 434 kts 107°
2026-04-30 14:08 50.76043 4.41550 29290 ft 434 kts 107°
2026-04-30 14:08 50.73311 4.55160 29287 ft 433 kts 107°
2026-04-30 14:09 50.71484 4.64238 29282 ft 434 kts 107°
2026-04-30 14:10 50.68868 4.77888 29268 ft 433 kts 107°
2026-04-30 14:10 50.67095 4.86974 29267 ft 433 kts 107°
2026-04-30 14:11 50.64910 4.95763 29267 ft 434 kts 114°
2026-04-30 14:11 50.62335 5.04432 29270 ft 434 kts 115°
2026-04-30 14:12 50.59757 5.12937 29271 ft 434 kts 114°
2026-04-30 14:12 50.57165 5.21534 29262 ft 434 kts 114°
2026-04-30 14:13 50.54571 5.30120 29266 ft 434 kts 114°
2026-04-30 14:13 50.51974 5.38668 29278 ft 434 kts 114°
2026-04-30 14:14 50.49371 5.47201 29270 ft 433 kts 114°
2026-04-30 14:14 50.46762 5.55727 29268 ft 433 kts 114°
2026-04-30 14:15 50.44143 5.64262 29271 ft 434 kts 114°
2026-04-30 14:15 50.41524 5.72769 29274 ft 434 kts 114°
2026-04-30 14:16 50.38888 5.81287 29285 ft 434 kts 114°
2026-04-30 14:16 50.36249 5.89797 29283 ft 434 kts 114°
2026-04-30 14:17 50.33620 5.98246 29287 ft 434 kts 114°
2026-04-30 14:17 50.30966 6.06735 29289 ft 434 kts 114°
2026-04-30 14:18 50.28309 6.15220 29297 ft 434 kts 114°
2026-04-30 14:18 50.24315 6.27908 29287 ft 432 kts 114°
2026-04-30 14:19 50.20323 6.40519 29293 ft 432 kts 114°
2026-04-30 14:20 50.17077 6.48430 29307 ft 437 kts 126°
2026-04-30 14:20 50.11220 6.59403 29301 ft 440 kts 128°
2026-04-30 14:21 50.07275 6.66656 29303 ft 440 kts 127°
2026-04-30 14:22 50.01370 6.77577 29297 ft 440 kts 127°
2026-04-30 14:22 49.95449 6.88447 29302 ft 440 kts 127°
2026-04-30 14:23 49.87537 7.02920 29303 ft 441 kts 127°
2026-04-30 14:24 49.81567 7.13781 29311 ft 441 kts 127°
2026-04-30 14:25 49.73572 7.28261 29317 ft 441 kts 127°
2026-04-30 14:26 49.67585 7.39051 29309 ft 441 kts 127°
2026-04-30 14:27 49.61574 7.49839 29312 ft 441 kts 127°
2026-04-30 14:27 49.57597 7.56953 29293 ft 441 kts 128°
2026-04-30 14:28 49.51566 7.67688 29302 ft 441 kts 127°
2026-04-30 14:28 49.47558 7.74818 29294 ft 442 kts 127°
2026-04-30 14:29 49.40148 7.87929 29299 ft 442 kts 127°
2026-04-30 14:31 49.29399 8.06839 29306 ft 443 kts 127°
2026-04-30 14:31 49.22697 8.16585 29302 ft 456 kts 151°
2026-04-30 14:32 49.16538 8.19278 29298 ft 463 kts 163°
2026-04-30 14:32 49.13400 8.20397 29283 ft 462 kts 163°
2026-04-30 14:33 49.07144 8.22687 29275 ft 462 kts 162°
2026-04-30 14:33 48.97764 8.26168 29271 ft 462 kts 162°
2026-04-30 14:34 48.91557 8.28466 29269 ft 462 kts 162°
2026-04-30 14:34 48.85319 8.30770 29271 ft 462 kts 162°
2026-04-30 14:35 48.75904 8.34240 29098 ft 463 kts 163°
2026-04-30 14:35 48.72776 8.35377 28621 ft 460 kts 163°
2026-04-30 14:36 48.69675 8.36498 28173 ft 456 kts 163°
2026-04-30 14:36 48.66600 8.37615 27684 ft 454 kts 163°
2026-04-30 14:36 48.63577 8.38713 27079 ft 451 kts 163°
2026-04-30 14:36 48.60536 8.39825 26461 ft 446 kts 163°
2026-04-30 14:37 48.57539 8.40930 25877 ft 442 kts 163°
2026-04-30 14:37 48.54577 8.42027 25311 ft 438 kts 162°
2026-04-30 14:37 48.51628 8.43125 24754 ft 435 kts 162°
2026-04-30 14:37 48.48677 8.44227 24209 ft 433 kts 162°
2026-04-30 14:38 48.45765 8.45318 23656 ft 430 kts 162°
2026-04-30 14:38 48.42867 8.46406 23039 ft 427 kts 162°
2026-04-30 14:38 48.40017 8.47483 22430 ft 417 kts 162°
2026-04-30 14:38 48.37237 8.48536 21846 ft 407 kts 162°
2026-04-30 14:39 48.34518 8.49565 21292 ft 399 kts 162°
2026-04-30 14:39 48.31838 8.50590 20757 ft 396 kts 162°
2026-04-30 14:39 48.29177 8.51612 20245 ft 394 kts 162°
2026-04-30 14:40 48.23903 8.53636 19253 ft 389 kts 162°
2026-04-30 14:40 48.21296 8.54643 18776 ft 385 kts 162°
2026-04-30 14:40 48.18700 8.55564 18262 ft 384 kts 168°
2026-04-30 14:40 48.16034 8.55575 17710 ft 385 kts 182°
2026-04-30 14:41 48.13389 8.55064 17191 ft 384 kts 185°
2026-04-30 14:41 48.10746 8.54480 16684 ft 380 kts 186°
2026-04-30 14:41 48.08139 8.53948 16183 ft 375 kts 185°
2026-04-30 14:41 48.05580 8.53462 15674 ft 365 kts 184°
2026-04-30 14:42 48.03090 8.53001 15188 ft 356 kts 184°
2026-04-30 14:42 48.00660 8.52547 14724 ft 348 kts 185°
2026-04-30 14:42 47.98277 8.52109 14281 ft 340 kts 184°
2026-04-30 14:42 47.95949 8.51683 13820 ft 333 kts 184°
2026-04-30 14:43 47.93670 8.51249 13358 ft 327 kts 184°
2026-04-30 14:43 47.91436 8.50820 12907 ft 322 kts 184°
2026-04-30 14:43 47.89231 8.50379 12462 ft 317 kts 185°
2026-04-30 14:43 47.87068 8.49958 12041 ft 311 kts 184°
2026-04-30 14:44 47.84935 8.49550 11646 ft 307 kts 185°
2026-04-30 14:44 47.82835 8.49172 11254 ft 302 kts 185°
2026-04-30 14:44 47.80765 8.48821 10864 ft 298 kts 185°
2026-04-30 14:44 47.78802 8.47881 10439 ft 296 kts 210°
2026-04-30 14:45 47.77330 8.45815 10040 ft 290 kts 232°
2026-04-30 14:45 47.76191 8.43402 9656 ft 280 kts 234°
2026-04-30 14:45 47.75082 8.41071 9268 ft 272 kts 233°
2026-04-30 14:45 47.74003 8.38818 8899 ft 264 kts 233°
2026-04-30 14:46 47.73313 8.37373 8728 ft 254 kts 233°
2026-04-30 14:46 47.72320 8.35279 8463 ft 243 kts 233°
2026-04-30 14:46 47.71361 8.33248 8150 ft 236 kts 233°
2026-04-30 14:46 47.70437 8.31270 7841 ft 230 kts 233°
2026-04-30 14:47 47.69524 8.29367 7535 ft 222 kts 233°
2026-04-30 14:47 47.68447 8.27798 7198 ft 216 kts 206°
2026-04-30 14:47 47.67024 8.27390 6884 ft 208 kts 170°
2026-04-30 14:47 47.65812 8.28404 6559 ft 201 kts 129°
2026-04-30 14:48 47.64935 8.29981 6269 ft 197 kts 128°
2026-04-30 14:48 47.64050 8.31523 5935 ft 196 kts 128°
2026-04-30 14:48 47.63149 8.33069 5601 ft 193 kts 128°
2026-04-30 14:48 47.62179 8.34432 5281 ft 191 kts 133°
2026-04-30 14:49 47.61200 8.35707 4991 ft 189 kts 132°
2026-04-30 14:49 47.60258 8.37043 4680 ft 185 kts 132°
2026-04-30 14:49 47.59319 8.38342 4427 ft 179 kts 133°
2026-04-30 14:49 47.58450 8.39523 4191 ft 164 kts 130°
2026-04-30 14:50 47.56893 8.41680 3764 ft 145 kts 128°
2026-04-30 14:50 47.56145 8.42712 3602 ft 150 kts 129°
2026-04-30 14:51 47.54607 8.44818 3197 ft 149 kts 129°
2026-04-30 14:51 47.53861 8.45847 2992 ft 143 kts 129°
2026-04-30 14:51 47.52425 8.47817 2606 ft 137 kts 128°
2026-04-30 14:52 47.51744 8.48754 2414 ft 133 kts 129°
2026-04-30 14:52 47.50319 8.50708 2071 ft 147 kts 127°
2026-04-30 14:52 47.49590 8.51722 1835 ft 142 kts 130°
2026-04-30 14:53 47.48177 8.53649 1426 ft 136 kts 132°
2026-04-30 14:53 47.47539 8.54526 1395 ft 112 kts 137°
2026-04-30 14:54 47.46746 8.55586 1397 ft 37 kts 148°
2026-04-30 14:54 47.46418 8.55738 1400 ft 19 kts 163°
2026-04-30 14:55 47.46231 8.55963 1399 ft 18 kts 137°
2026-04-30 14:55 47.46139 8.55997 1399 ft 13 kts 185°
2026-04-30 14:55 47.45950 8.55960 1400 ft 12 kts 197°
2026-04-30 14:56 47.45827 8.55894 1402 ft 0 kts 199°
2026-04-30 14:56 47.45821 8.55892 1400 ft 3 kts 198°
2026-04-30 14:57 47.45778 8.55877 1401 ft 9 kts 188°
2026-04-30 14:57 47.45614 8.55852 1398 ft 15 kts 186°
2026-04-30 14:58 47.45507 8.55771 1399 ft 8 kts 276°
2026-04-30 14:58 47.45502 8.55703 1403 ft 4 kts 224°
2026-04-30 14:58 47.45437 8.55692 1396 ft 1 kts 186°
2026-04-30 14:59 47.45433 8.55691 1396 ft 0 kts 186°